Change the Weather History Date:

Sunday, November 4, 2012

  Actual Average Record
Temperature  
Mean Temperature 72 °F -  
Max Temperature 78 °F 79 °F 88 °F (1961)
Min Temperature 66 °F 65 °F 45 °F (1966)
Cooling Degree Days 6    
Growing Degree Days 22 (Base 50)    
Moisture  
Dew Point 66 °F    
Average Humidity 93    
Maximum Humidity 100    
Minimum Humidity 52    
Precipitation  
Precipitation 0.00 in - - ()
Sea Level Pressure  
Sea Level Pressure 30.08 in    
Wind  
Wind Speed 2 mph (ENE)    
Max Wind Speed 9 mph    
Max Gust Speed -    
Visibility 4 miles    
Events Fog    
Averages and records for this station are not official NWS values.
T = Trace of Precipitation, MM = Missing Value Source: NWS Daily Summary

Daily Weather History Graph

Daily Weather History Graph

Search for Another Location

Airport or City:

Trip Planner

Search our weather history database for the weather conditions in past years. The results will help you decide how hot, cold, wet, or windy it might be!

Date:

Astronomy

Nov. 04, 2012 Rise Set
Actual Time 6:43 AM EST 5:43 PM EST
Civil Twilight 6:19 AM EST 6:08 PM EST
Nautical Twilight 5:51 AM EST 6:36 PM EST
Astronomical Twilight 5:24 AM EST 7:03 PM EST
Moon 10:24 PM EST (11/4) 11:21 AM EST (11/4)
Length of Visible Light 11h 48m
Length of Day
11h 00m
Waning Gibbous, 72% of the Moon is Illuminated
Nov 4
Waning Gibbous
Nov 6
Last Quarter
Nov 13
New
Nov 20
First Quarter
Nov 28
Full

Hourly Weather History & Observations

Time (EST) Temp. Dew Point Humidity Pressure Visibility Wind Dir Wind Speed Gust Speed Precip Events Conditions
12:53 AM 68.0 °F 66.9 °F 96% 30.09 in 5.0 mi Calm Calm - N/A   Clear
1:53 AM 69.1 °F 68.0 °F 96% 30.09 in 4.0 mi Calm Calm - N/A   Clear
1:53 AM 68.0 °F 68.0 °F 100% 30.09 in 3.0 mi Calm Calm - N/A   Clear
2:01 AM 66.2 °F 66.2 °F 100% 30.08 in 2.0 mi Calm Calm - N/A   Partly Cloudy
2:08 AM 66.2 °F 66.2 °F 100% 30.08 in 1.5 mi Calm Calm - N/A   Scattered Clouds
2:22 AM 66.2 °F 66.2 °F 100% 30.08 in 1.5 mi Calm Calm - N/A   Mostly Cloudy
2:31 AM 66.2 °F 66.2 °F 100% 30.08 in 0.5 mi Calm Calm - N/A Fog Fog
2:49 AM 66.2 °F 66.2 °F 100% 30.08 in 0.2 mi Calm Calm - N/A Fog Fog
2:53 AM 66.0 °F 66.0 °F 100% 30.08 in 0.2 mi Calm Calm - N/A Fog Fog
3:09 AM 66.2 °F 66.2 °F 100% 30.08 in 0.8 mi Calm Calm - N/A   Mist
3:24 AM 66.2 °F 66.2 °F 100% 30.07 in 0.2 mi NNE 3.5 mph - N/A Fog Fog
3:53 AM 66.0 °F 66.0 °F 100% 30.08 in 0.2 mi Calm Calm - N/A Fog Fog
4:53 AM 66.9 °F 66.9 °F 100% 30.08 in 0.2 mi NE 3.5 mph - N/A Fog Fog
5:53 AM 68.0 °F 68.0 °F 100% 30.09 in 0.5 mi NNE 3.5 mph - N/A Fog Fog
6:03 AM 68.0 °F 68.0 °F 100% 30.09 in 2.0 mi North 3.5 mph - N/A   Overcast
6:11 AM 66.2 °F 66.2 °F 100% 30.10 in 7.0 mi NNE 3.5 mph - N/A   Overcast
6:32 AM 66.2 °F 66.2 °F 100% 30.10 in 8.0 mi Calm Calm - N/A   Scattered Clouds
6:53 AM 66.9 °F 66.9 °F 100% 30.10 in 8.0 mi Calm Calm - N/A   Scattered Clouds
7:12 AM 68.0 °F 66.2 °F 94% 30.10 in 7.0 mi East 3.5 mph - N/A   Mostly Cloudy
7:30 AM 68.0 °F 66.2 °F 94% 30.11 in 6.0 mi Calm Calm - N/A   Overcast
7:53 AM 68.0 °F 66.9 °F 96% 30.11 in 2.5 mi ENE 3.5 mph - N/A   Overcast
8:01 AM 68.0 °F 66.2 °F 94% 30.12 in 0.8 mi ENE 4.6 mph - N/A   Overcast
8:10 AM 66.2 °F 66.2 °F 100% 30.12 in 0.2 mi NE 3.5 mph - N/A Fog Fog
8:53 AM 66.9 °F 66.9 °F 100% 30.12 in 0.2 mi East 4.6 mph - N/A Fog Fog
9:53 AM 66.9 °F 66.9 °F 100% 30.12 in 0.2 mi East 4.6 mph - N/A Fog Fog
10:41 AM 68.0 °F 68.0 °F 100% 30.11 in 0.5 mi East 3.5 mph - N/A Fog Fog
10:53 AM 66.9 °F 66.9 °F 100% 30.11 in 0.5 mi ESE 3.5 mph - N/A Fog Fog
11:17 AM 68.0 °F 68.0 °F 100% 30.10 in 1.2 mi East 3.5 mph - N/A   Overcast
11:43 AM 69.8 °F 68.0 °F 94% 30.09 in 3.0 mi Calm Calm - N/A   Overcast
11:48 AM 69.8 °F 68.0 °F 94% 30.09 in 1.8 mi Calm Calm - N/A   Overcast
11:53 AM 69.1 °F 68.0 °F 96% 30.09 in 1.0 mi SE 3.5 mph - N/A   Overcast
12:09 PM 69.8 °F 68.0 °F 94% 30.08 in 3.0 mi SE 4.6 mph - N/A   Mostly Cloudy
12:13 PM 69.8 °F 68.0 °F 94% 30.08 in 1.8 mi SE 4.6 mph - N/A   Mostly Cloudy
12:25 PM 69.8 °F 68.0 °F 94% 30.08 in 5.0 mi SE 4.6 mph - N/A   Partly Cloudy
12:53 PM 73.9 °F 66.0 °F 76% 30.06 in 5.0 mi SSE 4.6 mph - N/A   Haze
1:53 PM 75.9 °F 63.0 °F 64% 30.03 in 10.0 mi South 9.2 mph - N/A   Clear
2:53 PM 75.9 °F 61.0 °F 60% 30.01 in 10.0 mi SSW 5.8 mph - N/A   Clear
3:53 PM 77.0 °F 57.9 °F 52% 30.01 in 10.0 mi WSW 5.8 mph - N/A   Clear
4:53 PM 75.0 °F 63.0 °F 66% 30.01 in 10.0 mi West 9.2 mph - N/A   Clear
5:53 PM 73.0 °F 63.0 °F 71% 30.01 in 10.0 mi West 5.8 mph - N/A   Clear
6:53 PM 72.0 °F 64.9 °F 78% 30.02 in 10.0 mi NW 4.6 mph - N/A   Clear
7:53 PM 71.1 °F 66.0 °F 84% 30.03 in 10.0 mi NW 5.8 mph - N/A   Clear
8:53 PM 70.0 °F 68.0 °F 93% 30.04 in 7.0 mi NW 3.5 mph - N/A   Clear
9:53 PM 70.0 °F 68.0 °F 93% 30.03 in 7.0 mi West 3.5 mph - N/A   Clear
10:53 PM 68.0 °F 66.9 °F 96% 30.01 in 6.0 mi Calm Calm - N/A   Clear